Content
SEND FEEDBACK

Daily
Averages
Monthly
Summary
United States of America

SOUTH LAKE TAHOE - AIRPORT, CALIFORNIA


Home > North America > United States > California
Elevation: 6250 feet     Latitude: 38 54N     Longitude: 120 00W

WEATHER
 
SELECT A DAY
Number of Records: 174,348;   Date Range: 1/1/95 - 7/23/14
 
SHARE

PRINT THIS DATA

[ ← Previous Day ]
WEATHER ALMANAC - FEBRUARY 20, 2013
[ Next Day → ]
[ °C ]   °F
Weather ElementAverageHighLow
Temperature25.2 °F36 °F (1:53 pm)12.9 °F (6:53 am)
Dewpoint14 °F19.9 °F (1:53 am)6.1 °F (12:53 pm)
Humidity65.9 %86 % (12:21 am)31 % (12:53 pm)
Barometer29.81 in30.01 in (7:53 pm)29.63 in (12:21 am)
Wind Speed3.3 mph10.4 mph (9:53 am)
Wind Gust19.6 mph (12:53 pm)
Weather ElementAverage
Visibility7.3 mi
Wind DirectionNNE (16.1 °)

Weather ElementTotal
Precipitation0.05 in
Heating Degree Days40.6 (Base 65)
Averaged from 28 records on February 20, 2013
WEATHER CONDITIONS BREAKOUT
WIND DIRECTION BREAKOUT
WEATHER BY HOUR - FEBRUARY 20, 2013
[ °C ]   °F
Local TimeTemperatureDewpointHumidityBarometerVisibilityWind DirectionWind SpeedGust SpeedPrecipitationEventsConditions
12:21 AM21.2 °F17.6 °F86 %29.63 in0.8 miCalm0.01 inSnowLight Snow
12:43 AM23.0 °F17.6 °F80 %29.64 in2.0 miCalm0.01 inSnowLight Snow
12:48 AM23.0 °F17.6 °F80 %29.64 in3.0 miCalm0.01 inSnowLight Snow
12:53 AM23.0 °F19.0 °F85 %29.67 in4.0 miCalm0.01 inSnowLight Snow
1:00 AM23.0 °F19.4 °F86 %29.65 in7.0 miCalm0.00 inOvercast
1:13 AM21.2 °F17.6 °F86 %29.65 in5.0 miCalm0.00 inSnowLight Snow
1:25 AM23.0 °F17.6 °F80 %29.66 in3.0 miCalm0.00 inSnowLight Snow
1:29 AM21.2 °F17.6 °F86 %29.66 in1.8 miCalm0.00 inSnowLight Snow
1:53 AM25.0 °F19.9 °F81 %29.70 in3.0 miNorth (10°)5.8 mph0.00 inSnowLight Snow
1:56 AM24.8 °F19.4 °F80 %29.67 in5.0 miNNE (30°)9.2 mph0.00 inSnowLight Snow
2:53 AM25.0 °F17.1 °F72 %29.73 in10.0 miVariable4.6 mph0.00 inOvercast
4:53 AM14.0 °F10.0 °F84 %29.83 in10.0 miCalmPartly Cloudy
5:53 AM23.0 °F14.0 °F68 %29.82 in10.0 miNNE (30°)9.2 mphPartly Cloudy
6:53 AM12.9 °F8.1 °F81 %29.91 in10.0 miCalmClear
8:53 AM26.1 °F12.9 °F58 %29.91 in10.0 miNNE (30°)6.9 mphClear
9:53 AM28.9 °F12.0 °F49 %29.91 in10.0 miNorth (10°)10.4 mph18.4 mphClear
10:53 AM30.9 °F9.0 °F40 %29.91 in10.0 miNE (40°)10.4 mphClear
11:53 AM33.1 °F8.1 °F35 %29.88 in10.0 miNNE (20°)10.4 mphClear
12:53 PM34.0 °F6.1 °F31 %29.86 in10.0 miNNE (20°)9.2 mph19.6 mph0.01 inClear
1:53 PM36.0 °F10.0 °F34 %29.83 in10.0 miCalmClear
2:53 PM35.1 °F10.0 °F35 %29.84 in10.0 miNE (40°)8.1 mphClear
3:53 PM35.1 °F9.0 °F34 %29.87 in10.0 miNE (40°)5.8 mphClear
5:53 PM28.0 °F12.9 °F53 %29.91 in5.0 miCalmHaze
6:53 PM27.0 °F12.0 °F53 %29.98 in7.0 miSouth (180°)3.5 mphPartly Cloudy
7:53 PM25.0 °F14.0 °F63 %30.01 in9.0 miCalmClear
8:53 PM23.0 °F15.1 °F72 %29.95 in10.0 miCalmClear
9:53 PM21.9 °F15.1 °F75 %29.95 in10.0 miCalmClear
11:53 PM19.0 °F12.9 °F77 %29.93 in10.0 miCalmClear
Hourly data recorded from KTVL, located miles away from South Lake Tahoe - Airport, California







STORIES FROM OUR PARTNERS